Regional Weather Roundup
Issued by NWS

Home | Current Version | Previous Version | Graphics & Text | Print | Product List | Glossary On
Versions: 1 2 3 4 5 6 7 8 9 10 11 12 13 14 15 16 17 18 19 20 21 22 23 24 25 26 27 28 29 30 31 32 33 34 35 36 37 38 39 40 41 42 43 44 45 46 47 48 49 50
594
ASUS43 KMPX 171401
RWRMN
WEATHER ROUNDUP FOR MINNESOTA
NATIONAL WEATHER SERVICE TWIN CITIES/CHANHASSEN MN
900 AM CDT TUE OCT 17 2017


NOTE: "FAIR" INDICATES FEW OR NO CLOUDS BELOW 12,000 FEET WITH NO
SIGNIFICANT WEATHER AND/OR OBSTRUCTIONS TO VISIBILITY. N/A MEANS
CURRENT SKY AND/OR WEATHER CONDITIONS ARE NOT AVAILABLE.

MNZ060>063-068>070-171500-
   Twin Cities Metro

CITY           SKY/WX    TMP DP  RH WIND       PRES   REMARKS
TWIN CITIES    CLOUDY    49  43  80 S5        30.02R
ST PAUL        CLOUDY    48  46  93 SE3       30.04R
CRYSTAL        CLOUDY    46  41  82 S3        30.00S
LAKEVILLE      MOSUNNY   48  41  76 CALM      30.02S
EDEN PRAIRIE   SUNNY     47  42  83 SW5       30.01R
SOUTH ST PAUL  CLOUDY    45  45  97 CALM      30.02S
LAKE ELMO      FAIR      45  43  93 CALM      30.03R
$$
MNZ001>005-007-008-013>017-022>024-027-028-171500-
   Northwest Minnesota

CITY           SKY/WX    TMP DP  RH WIND       PRES   REMARKS
BEMIDJI        CLOUDY    40  36  85 CALM      29.93S
HALLOCK        CLOUDY    41  34  75 SE10      29.84F
ROSEAU           N/A     43  37  81 S9        29.87S
WARROAD        CLOUDY    39  36  87 CALM      29.88S
CROOKSTON      CLOUDY    39  34  81 S8        29.90F
FOSSTON        CLOUDY    39  36  87 S7        29.93F
DETROIT LAKES  SUNNY     43  41  93 S7        29.96F
MOORHEAD       CLOUDY    39  36  87 S8        29.95F
PARK RAPIDS    SUNNY     39  37  92 SE5       29.96S
MAHNOMEN       FAIR      44  38  78 S8        29.94R
$$
MNZ006-009>011-018-025>026-171500-
   North Central Minnesota

CITY           SKY/WX    TMP DP  RH WIND       PRES   REMARKS
BAUDETTE       CLOUDY    40  36  86 SE3       29.90S
FLAG ISLAND    CLOUDY    46  41  81 S3        29.87S
INTL FALLS     CLOUDY    40  35  83 CALM      29.92R
WASKISH        CLOUDY    41  37  87 CALM      29.91S
BIG FORK       CLOUDY    36  34  93 CALM      29.94S
LONGVILLE      SUNNY     36  36 100 CALM      29.96S
GRAND RAPIDS   CLOUDY    43  39  86 S3        29.98R
CRANE LAKE     SUNNY     32  30  93 CALM      29.95R
ORR            CLOUDY    43  34  70 CALM      29.92S
COOK           CLOUDY    36  34  93 CALM      29.95S
WALKER         FAIR      40  37  87 SW6       29.96R
$$
MNZ012-019>021-037-171500-
   Northeast Minnesota

CITY           SKY/WX    TMP DP  RH WIND       PRES   REMARKS
DULUTH         MOSUNNY   48  41  76 S3        29.97R
ELY            SUNNY     41  37  87 CALM      29.95R
HIBBING        CLOUDY    35  33  92 CALM      29.95S
EVELETH        CLOUDY    35  35 100 CALM      29.97R
DULUTH HARBOR  MOSUNNY   48  43  81 SW7       29.98R
TWO HARBORS    CLOUDY    48  41  76 CALM      29.95R
SILVER BAY     MOSUNNY   46  41  81 CALM      29.95R
GRAND MARAIS     N/A     54  37  52 VRB5      29.93R
G MARAIS ARPRT MOSUNNY   45  34  65 CALM      29.94R
$$
MNZ029>031-032-039>041-046>048-054>057-064-171500-
   West Central Minnesota

CITY           SKY/WX    TMP DP  RH WIND       PRES   REMARKS
FERGUS FALLS   CLOUDY    43  37  81 SE5       29.99S
WHEATON        SUNNY     43  37  81 SE6       30.00S
MORRIS         SUNNY     39  39 100 S3        29.99R
ALEXANDRIA     SUNNY     46  43  89 CALM      30.00R
ELBOW LAKE     FAIR      43  41  95 SE3       29.99S
WADENA         CLOUDY    39  39 100 CALM      29.98S
GLENWOOD       CLOUDY    45  43  93 CALM      30.00R
APPLETON       SUNNY     43  39  87 CALM      30.00R
BENSON         CLOUDY    37  36  93 CALM      30.02R
ORTONVILLE     SUNNY     45  39  81 CALM      29.99R
MADISON        SUNNY     45  45 100 CALM      30.00R
WILLMAR        FAIR      41  39  93 CALM      30.02R
$$
MNZ033>034-036-042>043-049>051-058-059-171500-
   Central Minnesota

CITY           SKY/WX    TMP DP  RH WIND       PRES   REMARKS
ST CLOUD       SUNNY     41  40  96 CALM      30.00R
SAUK CENTRE    FAIR      39  39  98 CALM      30.00R
PAYNESVILLE    CLOUDY    39  39 100 CALM      30.01R
AITKIN         SUNNY     41  39  93 CALM      29.97S
PINE RIVER     SUNNY     36  34  93 CALM      30.01S
BRAINERD       SUNNY     41  40  96 S5        29.99R
STAPLES        SUNNY     37  37 100 CALM      29.98S
LONG PRAIRIE   FAIR      39  37  93 CALM      30.00S
LITTLE FALLS   CLOUDY    37  36  93 CALM      30.00R
LITCHFIELD     CLOUDY    46  45  93 CALM      30.01S
BUFFALO        SUNNY     44  40  88 CALM      30.02R
MAPLE LAKE     SUNNY     43  43  99 CALM      30.02R
HUTCHINSON     CLOUDY    42  41  97 CALM      30.02S
$$
MNZ037-044-045-052-053-171500-
   East Central Minnesota

CITY           SKY/WX    TMP DP  RH WIND       PRES   REMARKS
PRINCETON      SUNNY     43  41  93 CALM      30.00S
MORA           SUNNY     37  37 100 CALM      30.02R
CAMBRIDGE      SUNNY     45  45 100 CALM      30.01R
RUSH CITY      SUNNY     42  40  94 CALM      30.01S
MOOSE LAKE     SUNNY     36  34  93 CALM      29.98R
HINCKLEY       FAIR      39  39 100 CALM      30.01R
CLOQUET        CLOUDY    46  37  71 SW5       29.97S
MCGREGOR       SUNNY     43  41  93 S3        29.99R
$$
MNZ071>073-080-081-089-090-097-098-171500-
   Southwest Minnesota

CITY           SKY/WX    TMP DP  RH WIND       PRES   REMARKS
MONTEVIDEO     SUNNY     46  43  87 CALM      30.01R
GRANITE FALLS  SUNNY     43  41  91 CALM      30.03R
CANBY          SUNNY     55  38  53 SW7       30.01S
MARSHALL       SUNNY     48  40  73 CALM      30.01S
REDWOOD FALLS  SUNNY     46  39  76 SW3       30.02R
OLIVIA         MOSUNNY   43  39  87 CALM      30.01R
PIPESTONE      SUNNY     45  39  81 SW3       30.04S
WORTHINGTON    SUNNY     50  40  68 SW9       30.05R
JACKSON        SUNNY     50  37  62 SW7       30.05R
TRACY          SUNNY     51  42  70 SW10      30.02R
SLAYTON        SUNNY     50  40  69 SW3       30.04S
$$
MNZ065>067-074>077-082>085-091>093-171500-
   South Central Minnesota

CITY           SKY/WX    TMP DP  RH WIND       PRES   REMARKS
MANKATO        SUNNY     46  40  79 S5        30.04R
NEW ULM          N/A     46  39  76 CALM      30.02R
ST JAMES       SUNNY     48  41  76 CALM      30.03S
FAIRMONT       SUNNY     50  41  71 SW5       30.05R
GLENCOE        CLOUDY    45  45 100 CALM      30.01S
FARIBAULT      SUNNY     48  43  81 CALM      30.03R
OWATONNA       SUNNY     50  43  76 S5        30.04R
WASECA         SUNNY     46  41  81 S6        30.05R
ALBERT LEA     SUNNY     54  43  66 SW7       30.05S
$$
MNZ078>079-086>088-094>096-171500-
   Southeast Minnesota

CITY           SKY/WX    TMP DP  RH WIND       PRES   REMARKS
ROCHESTER      CLOUDY    52  42  69 SW13      30.05S
RED WING       MOSUNNY   48  43  81 CALM      30.02S
STANTON        SUNNY     50  42  74 SW5       30.02R
DODGE CENTER   SUNNY     48  39  71 SW9       30.04R
WINONA         SUNNY     54  43  66 CALM      30.06R
AUSTIN         SUNNY     46  43  87 S5        30.05F
PRESTON        SUNNY     49  40  71 SW7       30.07R
$$
ABBREVIATIONS USED IN REMARKS
   TC - TEMPERATURES IN CELSIUS
  WCI - WIND CHILL INDEX
   HX - HEAT INDEX
  VSB - VISIBILITY
$$




USA.gov is the U.S. government's official web portal to all federal, state and local government web resources and services.